Weather History for Fort Leonard Wood, MO

Change the Weather History Date:

Thursday, August 22, 2013

  Actual Average Record
Temperature  
Mean Temperature 77 °F -  
Max Temperature 88 °F 85 °F 98 °F (2014)
Min Temperature 66 °F 67 °F 59 °F (1997)
Cooling Degree Days 12    
Growing Degree Days 27 (Base 50)    
Moisture  
Dew Point 71 °F    
Average Humidity 83    
Maximum Humidity 100    
Minimum Humidity 52    
Precipitation  
Precipitation 0.00 in - - ()
Sea Level Pressure  
Sea Level Pressure 30.09 in    
Wind  
Wind Speed 3 mph (South)    
Max Wind Speed 7 mph    
Max Gust Speed -    
Visibility 10 miles    
Events      
Averages and records for this station are not official NWS values.
T = Trace of Precipitation, MM = Missing Value Source: NWS Daily Summary

Daily Weather History Graph

Daily Weather History Graph

Search for Another Location

Airport:

Trip Planner

Search our weather history database for the weather conditions in past years. The results will help you decide how hot, cold, wet, or windy it might be!

Date:

Astronomy

Aug. 22, 2013 Rise Set
Actual Time 6:30 AM CDT 7:51 PM CDT
Civil Twilight 6:02 AM CDT 8:19 PM CDT
Nautical Twilight 5:30 AM CDT 8:51 PM CDT
Astronomical Twilight 4:55 AM CDT 9:26 PM CDT
Moon 8:39 PM CDT (8/22) 8:16 AM CDT (8/22)
Length of Visible Light 14h 16m
Length of Day
13h 21m
Waning Gibbous, 96% of the Moon is Illuminated
Aug 22
Waning Gibbous
Aug 28
Last Quarter
Sep 5
New
Sep 12
First Quarter
Sep 19
Full

Hourly Weather History & Observations

Time (CDT) Temp. Heat Index Dew Point Humidity Pressure Visibility Wind Dir Wind Speed Gust Speed Precip Events Conditions
12:58 AM 70.0 °F - 69.6 °F 99% 30.09 in 10.0 mi SSE 3.5 mph - N/A   Clear
1:58 AM 68.9 °F - 68.9 °F 100% 30.09 in 10.0 mi SSE 4.6 mph - N/A   Clear
2:58 AM 68.4 °F - 68.4 °F 100% 30.10 in 10.0 mi South 3.5 mph - N/A   Clear
3:58 AM 68.2 °F - 68.2 °F 100% 30.09 in 10.0 mi South 4.6 mph - N/A   Clear
4:58 AM 67.1 °F - 67.1 °F 100% 30.09 in 10.0 mi South 3.5 mph - N/A   Clear
5:58 AM 66.4 °F - 66.4 °F 100% 30.09 in 10.0 mi South 3.5 mph - N/A   Clear
6:58 AM 69.1 °F - 68.2 °F 97% 30.11 in 10.0 mi South 3.5 mph - N/A   Clear
7:58 AM 72.5 °F - 68.9 °F 88% 30.13 in 10.0 mi Variable 4.6 mph - N/A   Clear
8:58 AM 76.3 °F - 70.7 °F 83% 30.13 in 10.0 mi SSW 4.6 mph - N/A   Clear
9:58 AM 79.0 °F - 72.3 °F 80% 30.13 in 10.0 mi WSW 4.6 mph - N/A   Clear
10:58 AM 82.4 °F 87.9 °F 72.9 °F 73% 30.13 in 10.0 mi SW 6.9 mph - N/A   Clear
11:58 AM 85.1 °F 89.8 °F 70.5 °F 61% 30.12 in 10.0 mi West 5.8 mph - N/A   Clear
12:58 PM 86.2 °F 91.4 °F 71.1 °F 60% 30.11 in 10.0 mi WNW 3.5 mph - N/A   Partly Cloudy
1:58 PM 87.8 °F 93.4 °F 71.1 °F 57% 30.10 in 10.0 mi Calm Calm - N/A   Partly Cloudy
2:58 PM 87.1 °F 92.4 °F 70.9 °F 58% 30.09 in 10.0 mi NNW 3.5 mph - N/A   Scattered Clouds
3:58 PM 88.5 °F 92.7 °F 68.7 °F 52% 30.08 in 10.0 mi Variable 3.5 mph - N/A   Scattered Clouds
4:58 PM 85.3 °F 89.8 °F 70.0 °F 60% 30.06 in 10.0 mi Calm Calm - N/A   Clear
5:58 PM 85.8 °F 90.1 °F 69.6 °F 58% 30.05 in 10.0 mi Calm Calm - N/A   Clear
6:58 PM 83.1 °F 91.6 °F 76.5 °F 80% 30.05 in 10.0 mi Calm Calm - N/A   Clear
7:58 PM 77.9 °F - 74.3 °F 89% 30.05 in 10.0 mi East 1.2 mph - N/A   Clear
8:43 PM 75.2 °F - 73.4 °F 94% 30.08 in 10.0 mi SE 1.2 mph - N/A   Light Drizzle
8:53 PM 75.2 °F - 73.4 °F 94% 30.08 in 10.0 mi Calm Calm - N/A   Clear
8:59 PM 76.3 °F - 72.1 °F 87% 30.06 in 10.0 mi Variable 1.2 mph - 0.00 in   Clear
9:58 PM 73.8 °F - 72.0 °F 94% 30.07 in 10.0 mi SSE 3.5 mph - N/A   Partly Cloudy
10:58 PM 73.2 °F - 73.2 °F 100% 30.08 in 10.0 mi SSE 3.5 mph - N/A   Partly Cloudy
11:58 PM 72.5 °F - 72.5 °F 100% 30.08 in 10.0 mi SSE 3.5 mph - N/A   Clear